[[{"header":{"parameterUnit":"m.s-1","parameterCategory":1,"la1":30.2991,"la2":30.254,"lo1":-89.0895,"lo2":-89.0444,"dy":0.0017,"dx":0.0017,"nx":28,"ny":28,"refTime":"2025-01-20T09:00:00:Z","depth":0,"parameterNumber":2,"parameterNumberName":"U-component_of_WINDS"},"data":[0,0,0,0,0,0,0,0,0,0,0,0,0,0,0,0,0,0,0,0,0,0,0,0,0,0,0,0,0,0,0,0,0,0,0,0,0,0,0,0,0,0,0,0,0,0,0,0,0,0,0,0,0,0,0,0,0,0,-0.4475,-0.4476,0,-0.4561,-0.4562,-0.4563,-0.4514,-0.4511,-0.4509,-0.4507,-0.4597,-0.4601,-0.4606,0,0,0,0,0,0,0,0,0,0,0,0,0,-0.4267,-0.4271,-0.4475,-0.4476,-0.4477,-0.4561,-0.4562,-0.4564,-0.4514,-0.4511,-0.4508,-0.4505,-0.4595,-0.4601,-0.4606,0,0,0,0,0,0,0,0,0,0,0,0,0,-0.4356,-0.4272,-0.4475,-0.4462,-0.4462,-0.4561,-0.4563,-0.4564,-0.4515,-0.4511,-0.4507,-0.4504,-0.4593,-0.46,-0.4607,-0.4724,0,0,-0.4629,-0.4632,0,0,0,0,0,0,0,0,-0.4351,-0.4363,-0.4463,-0.4463,-0.4463,-0.4523,-0.4522,-0.4618,-0.4516,-0.4495,-0.4506,-0.4502,-0.4575,-0.4584,-0.4608,-0.4728,-0.4732,-0.4629,-0.4633,-0.4637,-0.4638,0,0,0,0,0,0,0,-0.4345,-0.4359,-0.4509,-0.4465,-0.4465,-0.4453,-0.4461,-0.454,-0.4555,-0.4496,-0.4493,-0.4504,-0.4575,-0.4601,-0.461,-0.4733,-0.4629,-0.4635,-0.464,-0.4642,-0.4953,-0.4956,0,0,0,0,0,0,-0.4339,-0.4355,-0.4506,-0.4512,-0.4397,-0.4459,-0.4469,-0.4508,-0.4554,-0.4557,-0.4507,-0.4501,-0.4591,-0.4602,-0.4613,-0.4753,-0.4636,-0.4643,-0.4647,-0.4949,-0.4953,-0.4958,0,0,0,0,0,0,-0.4335,-0.4353,-0.4503,-0.4432,-0.445,-0.4467,-0.4511,-0.4511,-0.4538,-0.4561,-0.4564,-0.4532,-0.4589,-0.4603,-0.4696,-0.4756,-0.4646,-0.4653,-0.4944,-0.495,-0.4956,-0.5034,0,0,0,0,0,0,-0.4329,-0.4352,-0.4397,-0.4434,-0.4454,-0.4586,-0.4514,-0.4516,-0.455,-0.4543,-0.4585,-0.4589,-0.4587,-0.4686,-0.4703,-0.4763,-0.4658,-0.4939,-0.4947,-0.4954,-0.5027,-0.5042,-0.5056,0,0,0,0,0,-0.4322,-0.4416,-0.4399,-0.4418,-0.451,-0.4589,-0.4601,-0.4597,-0.4555,-0.46,-0.4615,-0.4587,-0.4745,-0.4696,-0.4715,-0.4778,-0.4935,-0.4944,-0.4953,-0.502,-0.5039,-0.5056,0,0,0,0,0,0,-0.4386,-0.442,-0.4403,-0.4511,-0.4547,-0.458,-0.4638,-0.4617,-0.4667,-0.4658,-0.4651,-0.4661,-0.4759,-0.4777,-0.4721,-0.4893,-0.4834,-0.4847,-0.4878,-0.4897,-0.4911,-0.4906,-0.4664,0,0,0,0,0,-0.4413,-0.4473,-0.45,-0.4593,-0.4612,-0.4622,-0.4656,-0.4649,-0.4686,-0.4702,-0.4724,-0.4762,-0.482,-0.4858,-0.4913,-0.5027,-0.5037,-0.508,-0.5094,-0.5106,-0.5119,-0.5182,-0.5202,-0.4988,-0.4988,-0.4987,0,0,-0.4469,-0.4495,-0.4534,-0.4606,-0.4634,-0.4698,-0.4635,-0.4705,-0.4752,-0.4713,-0.4803,-0.482,-0.4861,-0.4966,-0.5013,-0.4984,-0.5179,-0.5118,-0.5127,-0.5134,-0.5193,-0.5213,-0.5231,-0.4994,-0.4993,-0.4992,0,0,-0.4604,-0.4629,-0.471,-0.4738,-0.478,-0.4786,-0.4805,-0.4841,-0.4851,-0.494,-0.4912,-0.4967,-0.5067,-0.5099,-0.5128,-0.5272,-0.5249,-0.5289,-0.5368,-0.5428,-0.5445,-0.546,-0.5514,-0.5533,-0.5301,-0.5301,-0.5302,0,-0.4669,-0.4764,-0.4754,-0.4827,-0.486,-0.4825,-0.4907,-0.4935,-0.4993,-0.5017,-0.4982,-0.5107,-0.5132,-0.5245,-0.528,-0.5303,-0.5326,-0.5287,-0.5443,-0.5458,-0.5472,-0.5523,-0.5543,-0.5306,-0.5306,-0.5305,-0.5305,0,-0.4843,-0.4908,-0.4968,-0.5025,-0.5064,-0.5141,-0.5143,-0.5184,-0.5172,-0.5181,-0.5273,-0.5301,-0.5362,-0.5387,-0.5377,-0.5497,-0.5478,-0.5444,-0.5385,-0.5498,-0.5546,-0.5565,-0.5313,-0.5312,-0.531,-0.5309,0,0,-0.5025,-0.5073,-0.5096,-0.5121,-0.5164,-0.5214,-0.5289,-0.5347,-0.5383,-0.5422,-0.5486,-0.557,-0.5538,-0.5571,-0.5563,-0.5616,-0.5731,-0.5576,-0.5576,-0.5606,-0.5867,-0.5895,-0.5918,-0.5714,-0.5717,-0.572,-0.5864,0,-0.5165,-0.5296,-0.5289,-0.5412,-0.5473,-0.5439,-0.5504,-0.5537,-0.5546,-0.5599,-0.5609,-0.567,-0.5622,-0.5642,-0.5693,-0.5706,-0.5784,-0.5695,-0.5774,-0.5777,-0.5769,-0.5943,-0.5973,-0.6108,-0.5883,-0.5886,-0.5888,0,-0.5348,-0.5394,-0.5523,-0.5556,-0.5581,-0.564,-0.5692,-0.5743,-0.5779,-0.5782,-0.5817,-0.58,-0.5876,-0.5811,-0.5916,-0.5856,-0.5886,-0.5898,-0.5903,-0.5913,-0.5843,-0.5961,-0.6151,-0.6172,-0.5917,-0.5915,-0.5913,0,-0.5471,-0.5565,-0.5654,-0.5677,-0.5716,-0.5759,-0.5777,-0.5809,-0.5845,-0.589,-0.5913,-0.5966,-0.5996,-0.6037,-0.6035,-0.5988,-0.6141,-0.6076,-0.6147,-0.6147,-0.6184,-0.6183,-0.6385,-0.6199,-0.6198,-0.6198,-0.6197,0,-0.5631,-0.5712,-0.5711,-0.5766,-0.5856,-0.5845,-0.5934,-0.5948,-0.5976,-0.6034,-0.6006,-0.6061,-0.6053,-0.6108,-0.6106,-0.6193,-0.6206,-0.6212,-0.6211,-0.6216,-0.6216,-0.624,-0.6232,-0.6203,-0.6202,-0.6201,-0.62,0,-0.5786,-0.5788,-0.5884,-0.5913,-0.5922,-0.5987,-0.6012,-0.6064,-0.6069,-0.6143,-0.6159,-0.6168,-0.6231,-0.6232,-0.6303,-0.6302,-0.641,-0.6396,-0.6398,-0.6397,-0.6468,-0.6463,-0.6696,-0.6727,-0.6517,-0.6519,-0.6521,0,-0.589,-0.5952,-0.5987,-0.6023,-0.6044,-0.6103,-0.6139,-0.6129,-0.6168,-0.6212,-0.626,-0.6319,-0.6367,-0.6469,-0.6482,-0.6536,-0.6526,-0.6604,-0.6535,-0.6538,-0.6531,-0.6529,-0.6536,-0.6619,-0.6622,-0.6623,-0.6625,0,-0.6075,-0.6072,-0.6125,-0.6177,-0.622,-0.6261,-0.6299,-0.633,-0.6325,-0.6368,-0.6432,-0.6469,-0.6541,-0.6602,-0.6654,-0.6672,-0.6649,-0.6646,-0.6666,-0.6674,-0.6673,-0.6677,-0.6439,-0.6642,-0.664,-0.6639,-0.6638,-0.6637,-0.621,-0.6263,-0.6296,-0.6355,-0.6382,-0.6417,-0.6468,-0.6479,-0.6532,-0.6591,-0.6581,-0.6653,-0.6685,-0.6753,-0.6776,-0.6831,-0.6804,-0.6832,-0.684,-0.6848,-0.6857,-0.6661,-0.684,-0.684,-0.6839,-0.6839,-0.6839,0,-0.6396,-0.6415,-0.6469,-0.6522,-0.6568,-0.6539,-0.6579,-0.662,-0.6683,-0.6715,-0.6762,-0.6835,-0.6893,-0.6909,-0.6964,-0.7006,-0.6996,-0.7021,-0.702,-0.7025,-0.6877,-0.6856,-0.7028,-0.7028,-0.7028,-0.7028,-0.7028,-0.7028,-0.6499,-0.6588,-0.6589,-0.669,-0.6708,-0.6778,-0.6804,-0.6836,-0.6862,-0.6945,-0.6992,-0.7002,-0.7028,-0.7084,-0.7136,-0.7139,-0.7162,-0.7192,-0.7191,-0.7054,-0.7035,-0.7017,-0.6997,-0.7196,-0.7196,-0.7334,-0.7336,-0.7337]},{"header":{"parameterUnit":"m.s-1","parameterCategory":1,"la1":30.2991,"la2":30.254,"lo1":-89.0895,"lo2":-89.0444,"dy":0.0017,"dx":0.0017,"nx":28,"ny":28,"refTime":"2025-01-20T09:00:00:Z","depth":0,"parameterNumber":3,"parameterNumberName":"V-component_of_WINDS"},"data":[0,0,0,0,0,0,0,0,0,0,0,0,0,0,0,0,0,0,0,0,0,0,0,0,0,0,0,0,0,0,0,0,0,0,0,0,0,0,0,0,0,0,0,0,0,0,0,0,0,0,0,0,0,0,0,0,0,0,-7.0648,-7.065,0,-7.0836,-7.0838,-7.084,-7.0727,-7.0722,-7.0717,-7.0712,-7.0899,-7.0909,-7.0919,0,0,0,0,0,0,0,0,0,0,0,0,0,-7.0184,-7.0193,-7.0648,-7.065,-7.0652,-7.0836,-7.0838,-7.0841,-7.0728,-7.0722,-7.0715,-7.0709,-7.0896,-7.0908,-7.092,0,0,0,0,0,0,0,0,0,0,0,0,0,-7.038,-7.0196,-7.0647,-7.0618,-7.0618,-7.0835,-7.0838,-7.0842,-7.073,-7.0722,-7.0713,-7.0706,-7.0892,-7.0906,-7.0921,-7.1176,0,0,-7.0967,-7.0974,0,0,0,0,0,0,0,0,-7.0369,-7.0397,-7.062,-7.0621,-7.062,-7.075,-7.0743,-7.0954,-7.0732,-7.0687,-7.0711,-7.0702,-7.0856,-7.0873,-7.0926,-7.1185,-7.1193,-7.0968,-7.0978,-7.0984,-7.0988,0,0,0,0,0,0,0,-7.0356,-7.0389,-7.0722,-7.0624,-7.0624,-7.0594,-7.0613,-7.0783,-7.0814,-7.069,-7.0683,-7.0707,-7.0854,-7.0912,-7.093,-7.1196,-7.0968,-7.0981,-7.0991,-7.0997,-7.1671,-7.168,0,0,0,0,0,0,-7.0345,-7.0378,-7.0716,-7.0728,-7.0473,-7.0609,-7.063,-7.0717,-7.0812,-7.0819,-7.0713,-7.0701,-7.089,-7.0912,-7.0936,-7.124,-7.0984,-7.0998,-7.1007,-7.1662,-7.1673,-7.1683,0,0,0,0,0,0,-7.0336,-7.0376,-7.0708,-7.0551,-7.0591,-7.0626,-7.0724,-7.0725,-7.0782,-7.083,-7.0834,-7.0767,-7.0885,-7.0915,-7.1117,-7.1245,-7.1005,-7.1018,-7.1652,-7.1666,-7.1678,-7.1852,0,0,0,0,0,0,-7.0323,-7.0374,-7.0473,-7.0554,-7.06,-7.089,-7.0731,-7.0734,-7.0809,-7.0794,-7.0881,-7.0888,-7.0881,-7.1095,-7.1132,-7.1262,-7.103,-7.1641,-7.1658,-7.1674,-7.1835,-7.1869,-7.1899,0,0,0,0,0,-7.0307,-7.0513,-7.0478,-7.052,-7.0725,-7.0897,-7.0923,-7.0912,-7.082,-7.0919,-7.0949,-7.0885,-7.1225,-7.1117,-7.1158,-7.1293,-7.1632,-7.1653,-7.1672,-7.182,-7.1863,-7.1898,0,0,0,0,0,0,-7.0444,-7.0523,-7.0486,-7.0725,-7.0805,-7.0878,-7.1002,-7.0957,-7.1064,-7.1046,-7.1025,-7.1046,-7.1257,-7.1295,-7.1174,-7.1544,-7.1414,-7.1443,-7.1513,-7.1553,-7.1585,-7.1572,-7.1043,0,0,0,0,0,-7.0503,-7.0638,-7.0699,-7.0904,-7.0946,-7.0968,-7.1042,-7.1027,-7.1109,-7.1142,-7.1186,-7.1267,-7.1391,-7.1474,-7.1591,-7.1839,-7.1856,-7.1952,-7.1984,-7.201,-7.2036,-7.2169,-7.2212,-7.1749,-7.1748,-7.1748,0,0,-7.0624,-7.0684,-7.0771,-7.0933,-7.0994,-7.1133,-7.0997,-7.115,-7.1252,-7.1164,-7.1359,-7.1395,-7.1482,-7.1709,-7.1811,-7.1747,-7.2167,-7.2036,-7.2056,-7.2068,-7.2194,-7.2238,-7.2277,-7.1762,-7.176,-7.1758,0,0,-7.0917,-7.0977,-7.1154,-7.1218,-7.1312,-7.1324,-7.1367,-7.1446,-7.1467,-7.1662,-7.1599,-7.1719,-7.1934,-7.1999,-7.2061,-7.2377,-7.2322,-7.2415,-7.2584,-7.2714,-7.275,-7.2783,-7.2896,-7.2936,-7.2441,-7.2441,-7.2441,0,-7.1057,-7.1266,-7.125,-7.1409,-7.1482,-7.1409,-7.1588,-7.1649,-7.1776,-7.1827,-7.1753,-7.2022,-7.2076,-7.2316,-7.2394,-7.2446,-7.2492,-7.2406,-7.2747,-7.2779,-7.2809,-7.2916,-7.2959,-7.2452,-7.2451,-7.2449,-7.2448,0,-7.1432,-7.1578,-7.1709,-7.1836,-7.1923,-7.209,-7.2098,-7.2188,-7.2164,-7.2184,-7.2383,-7.2445,-7.2573,-7.2628,-7.2606,-7.2866,-7.2823,-7.2749,-7.2618,-7.2864,-7.2965,-7.3006,-7.2467,-7.2463,-7.246,-7.2457,0,0,-7.1819,-7.1934,-7.1983,-7.2039,-7.2137,-7.2248,-7.2411,-7.2538,-7.2615,-7.2704,-7.284,-7.3023,-7.2955,-7.3024,-7.3008,-7.3122,-7.3369,-7.3033,-7.3035,-7.3094,-7.3658,-7.3714,-7.3762,-7.3332,-7.334,-7.3346,-7.3651,0,-7.2119,-7.2407,-7.2397,-7.2664,-7.2798,-7.273,-7.2871,-7.2946,-7.2968,-7.3082,-7.3105,-7.3236,-7.3136,-7.3177,-7.3287,-7.3316,-7.3482,-7.3293,-7.3457,-7.3463,-7.3439,-7.3815,-7.3875,-7.416,-7.369,-7.3696,-7.3701,0,-7.2508,-7.2612,-7.2894,-7.2971,-7.3026,-7.3154,-7.3269,-7.3381,-7.3462,-7.3469,-7.3547,-7.3513,-7.3675,-7.3539,-7.3762,-7.3634,-7.37,-7.3724,-7.3735,-7.375,-7.3598,-7.3842,-7.4251,-7.4294,-7.3763,-7.3758,-7.3754,0,-7.2763,-7.2973,-7.3168,-7.3218,-7.3313,-7.3404,-7.3448,-7.3521,-7.3598,-7.3697,-7.3747,-7.3863,-7.3928,-7.4018,-7.4014,-7.3915,-7.4241,-7.4104,-7.4251,-7.4251,-7.4324,-7.432,-7.475,-7.4365,-7.4364,-7.4363,-7.4362,0,-7.31,-7.3275,-7.3284,-7.3405,-7.3598,-7.3583,-7.3774,-7.3808,-7.3874,-7.3998,-7.3944,-7.4061,-7.4049,-7.4167,-7.4165,-7.435,-7.4379,-7.4388,-7.4386,-7.4395,-7.4394,-7.4438,-7.4419,-7.4374,-7.4372,-7.437,-7.4368,0,-7.3418,-7.3432,-7.3641,-7.3713,-7.3735,-7.3874,-7.3935,-7.4048,-7.4065,-7.4222,-7.4258,-7.4284,-7.442,-7.4425,-7.458,-7.4578,-7.4804,-7.4779,-7.4778,-7.4773,-7.492,-7.4907,-7.5396,-7.5459,-7.5032,-7.5036,-7.5039,0,-7.3633,-7.3766,-7.3853,-7.3934,-7.3983,-7.4113,-7.4191,-7.4181,-7.4264,-7.4366,-7.4467,-7.4597,-7.4701,-7.492,-7.4951,-7.5069,-7.5047,-7.521,-7.5064,-7.5068,-7.505,-7.5043,-7.5056,-7.5239,-7.5244,-7.5248,-7.5251,0,-7.4013,-7.4013,-7.4129,-7.4249,-7.4344,-7.4437,-7.4522,-7.459,-7.4589,-7.4685,-7.4824,-7.4905,-7.5064,-7.5194,-7.5308,-7.5349,-7.5301,-7.5296,-7.5337,-7.5347,-7.5342,-7.5347,-7.4857,-7.5285,-7.5282,-7.5279,-7.5278,-7.5276,-7.4287,-7.4402,-7.4482,-7.4613,-7.4676,-7.4757,-7.4868,-7.4898,-7.5014,-7.5144,-7.513,-7.5284,-7.5359,-7.5508,-7.5559,-7.5678,-7.5621,-7.568,-7.5695,-7.571,-7.5726,-7.5322,-7.5698,-7.5697,-7.5696,-7.5695,-7.5695,0,-7.4665,-7.4713,-7.4833,-7.4956,-7.5058,-7.5004,-7.5096,-7.5185,-7.5322,-7.5397,-7.5501,-7.566,-7.5785,-7.5826,-7.5947,-7.6034,-7.6014,-7.6066,-7.606,-7.607,-7.5769,-7.5723,-7.608,-7.608,-7.608,-7.6079,-7.6079,-7.6079,-7.4874,-7.5067,-7.5076,-7.5298,-7.5343,-7.5495,-7.5552,-7.5626,-7.5686,-7.5867,-7.5971,-7.5997,-7.6059,-7.6183,-7.6295,-7.6303,-7.6351,-7.6412,-7.6412,-7.613,-7.6091,-7.6055,-7.6011,-7.6423,-7.6423,-7.6703,-7.6705,-7.6707]}]]